Location: ??
(34.9170°N, 135.5016°E)
Time: 15:33:33
(UTC+00:00)

Tiros 1 despin weight - All Passes

Search period start: 26 February 2021 00:00
Search period end: 08 March 2021 00:00
Orbit: 593 x 642 km, 48.2° (Epoch: 25 February)

Date Brightness Start Highest point End Pass type
(mag) Time Alt. Az. Time Alt. Az. Time Alt. Az.
26 Feb - 15:04:16 10° SSW 15:08:33 41° SE 15:12:54 10° ENE night (unlit)
26 Feb - 16:45:50 10° W 16:50:08 38° NNW 16:54:30 10° NE night (unlit)
26 Feb - 18:29:40 10° NW 18:32:43 17° N 18:35:47 10° NNE visible
26 Feb - 20:12:23 10° NNW 20:15:41 18° NNE 20:18:59 10° ENE visible
26 Feb - 21:53:33 10° NW 21:58:07 49° NNE 22:02:38 10° ESE daylight
26 Feb - 23:35:28 10° WNW 23:39:31 29° SW 23:43:32 10° SSE daylight
27 Feb - 13:42:01 10° SSE 13:43:51 12° SE 13:45:42 10° ESE night (unlit)
27 Feb - 15:20:14 10° SW 15:24:49 84° SE 15:29:28 10° NE night (unlit)
27 Feb - 17:02:59 10° WNW 17:06:48 25° NNW 17:10:40 10° NE night (unlit)
27 Feb - 18:46:48 10° NW 18:49:38 16° N 18:52:28 10° NE visible
27 Feb - 20:28:39 10° NW 20:32:30 24° NNE 20:36:20 10° ENE visible
27 Feb - 22:09:50 10° NW 22:14:33 89° NE 22:19:13 10° SE daylight
27 Feb - 23:53:10 10° W 23:55:35 14° SW 23:57:59 10° SSW daylight
28 Feb - 13:56:06 10° S 13:59:53 26° SE 14:03:44 10° ENE night (unlit)
28 Feb - 15:36:46 10° WSW 15:41:14 52° NNW 15:45:47 10° NE night (unlit)
28 Feb - 17:20:19 10° WNW 17:23:36 19° NNW 17:26:56 10° NNE visible
28 Feb - 19:03:33 10° NNW 19:06:35 17° N 19:09:36 10° NE visible
28 Feb - 20:44:51 10° NW 20:49:11 36° NNE 20:53:30 10° E visible
28 Feb - 22:26:21 10° WNW 22:30:50 45° SW 22:35:16 10° SSE daylight
01 Mar - 14:11:38 10° SW 14:16:03 55° SE 14:20:34 10° ENE night (unlit)
01 Mar - 15:53:43 10° W 15:57:48 31° NNW 16:01:58 10° NE night (unlit)
01 Mar - 17:37:37 10° NW 17:40:30 16° N 17:43:24 10° NNE visible
01 Mar - 19:19:56 10° NNW 19:23:27 20° NNE 19:26:57 10° ENE visible
01 Mar - 21:01:03 10° NW 21:05:43 62° NE 21:10:21 10° ESE visible
01 Mar - 22:43:22 10° W 22:46:58 22° SW 22:50:33 10° S daylight
02 Mar - 12:48:22 10° S 12:51:17 17° SE 12:54:13 10° E night (unlit)
02 Mar - 14:27:50 10° WSW 14:32:22 75° NW 14:37:01 10° NE night (unlit)
02 Mar - 16:10:57 10° WNW 16:14:32 22° NNW 16:18:09 10° NNE night (unlit)
02 Mar - 17:54:35 10° NW 17:57:26 16° N 18:00:17 10° NE visible
02 Mar - 19:36:09 10° NW 19:40:12 28° NNE 19:44:15 10° E visible
02 Mar - 21:17:25 10° WNW 21:22:05 70° SW 21:26:44 10° SE daylight
03 Mar - 13:03:15 10° SSW 13:07:21 35° SE 13:11:33 10° ENE night (unlit)
03 Mar - 14:44:33 10° W 14:48:52 41° NNW 14:53:15 10° NE night (unlit)
03 Mar - 16:28:18 10° NW 16:31:23 17° N 16:34:28 10° NNE night (unlit)
03 Mar - 18:11:10 10° NNW 18:14:21 18° N 18:17:32 10° NE visible
03 Mar - 19:52:20 10° NW 19:56:49 44° NNE 20:01:18 10° ESE visible
03 Mar - 21:34:05 10° WNW 21:38:19 34° SW 21:42:31 10° SSE daylight
04 Mar - 11:42:14 10° SE 11:42:42 10° SE 11:43:11 10° ESE night (unlit)
04 Mar - 13:19:06 10° SW 13:23:35 75° SE 13:28:11 10° NE night (unlit)
04 Mar - 15:01:38 10° W 15:05:30 26° NNW 15:09:25 10° NE night (unlit)
04 Mar - 16:45:31 10° NW 16:48:18 16° N 16:51:06 10° NE night (unlit)
04 Mar - 18:27:28 10° NW 18:31:11 23° NNE 18:34:54 10° ENE visible
04 Mar - 20:08:35 10° NW 20:13:17 80° NE 20:17:58 10° SE visible
04 Mar - 21:51:30 10° W 21:54:24 16° SW 21:57:17 10° SSW daylight
05 Mar - 11:55:12 10° S 11:58:43 23° SE 12:02:17 10° E night (unlit)
05 Mar - 13:35:31 10° WSW 13:39:58 57° NNW 13:44:31 10° NE night (unlit)
05 Mar - 15:18:57 10° WNW 15:22:17 19° NNW 15:25:38 10° NNE night (unlit)
05 Mar - 17:02:19 10° NNW 17:05:13 16° N 17:08:09 10° NE night (unlit)
05 Mar - 18:43:38 10° NW 18:47:53 33° NNE 18:52:07 10° E visible
05 Mar - 20:25:03 10° WNW 20:29:36 52° SW 20:34:08 10° SSE visible
06 Mar - 12:10:33 10° SSW 12:14:52 48° SE 12:19:15 10° ENE night (unlit)
06 Mar - 13:52:24 10° W 13:56:31 33° NNW 14:00:42 10° NE night (unlit)
06 Mar - 15:36:17 10° NW 15:39:10 16° N 15:42:04 10° NNE night (unlit)
06 Mar - 17:18:45 10° NNW 17:22:06 19° NNE 17:25:29 10° ENE visible
06 Mar - 18:59:50 10° NW 19:04:26 55° NNE 19:09:02 10° ESE visible
06 Mar - 20:41:55 10° WNW 20:45:46 25° SW 20:49:35 10° S visible
07 Mar - 10:47:42 10° SSE 10:50:07 14° SE 10:52:33 10° E visible
07 Mar - 12:26:39 10° SW 12:31:09 84° NW 12:35:44 10° NE night (unlit)
07 Mar - 14:09:36 10° WNW 14:13:13 23° NNW 14:16:53 10° NNE night (unlit)
07 Mar - 15:53:20 10° NW 15:56:05 15° N 15:58:51 10° NE night (unlit)
07 Mar - 17:34:57 10° NW 17:38:52 26° NNE 17:42:49 10° E visible
07 Mar - 19:16:09 10° NW 19:20:50 79° SW 19:25:30 10° SE visible
07 Mar - 21:00:10 10° WSW 21:01:47 12° SW 21:03:25 10° SSW daylight
